Cloud_Cover
12 12 8 8 12 12 12 20 20 20 24 24 24 20 20 12 8 8 8 12 12 24 32 32 36 36 44 44 44 44 36 48 36 36 44 44 44 44 36 36 44 56 68 80 92 92 92 92 92 92 92 92 92 92 92 92 92 92 92 92 92 92 92 92 92 92 92 92 92
20 12 12 8 8 8 12 12 12 12 20 20 20 20 20 12 8 0 0 0 0 8 8 12 24 32 32 36 44 36 36 36 36 36 36 36 36 36 36 36 36 44 56 68 76 76 68 76 88 92 92 92 92 92 92 92 92 92 92 92 92 92 92 92 92 92 92 92 92
12 12 12 8 8 8 8 12 12 12 12 12 12 12 12 12 12 8 8 0 0 0 0 0 0 8 12 20 24 20 20 24 24 32 36 36 36 36 32 32 36 44 48 56 64 64 56 56 88 92 92 92 92 92 92 92 92 92 92 92 92 92 92 92 92 92 92 92 92
12 12 8 0 0 0 8 8 8 8 8 8 8 8 8 8 8 8 8 8 0 0 0 0 0 0 0 0 0 0 0 0 8 12 20 24 32 32 32 32 32 36 36 44 48 56 64 56 68 80 92 92 92 92 92 92 92 92 92 92 92 92 92 92 92 92 92 92 92
12 12 12 12 8 8 0 0 0 0 0 0 0 0 0 0 0 0 0 8 8 0 0 0 0 0 0 0 12 8 0 0 0 0 0 0 12 12 12 20 24 24 36 44 48 44 48 68 76 68 64 68 88 92 92 92 92 92 92 92 92 92 92 92 92 92 92 92 92
8 8 8 12 12 8 8 8 8 0 0 0 0 0 0 0 0 0 0 0 0 0 0 0 0 0 0 0 0 20 36 20 8 0 0 0 0 0 0 0 8 12 12 20 76 92 92 92 80 80 80 68 88 92 92 92 92 92 92 92 92 92 92 92 92 92 92 92 92
8 8 8 8 8 8 8 8 8 0 0 0 0 0 0 0 0 0 0 0 0 0 0 0 0 0 0 0 0 0 8 32 24 24 20 12 0 0 0 0 0 0 0 0 64 88 92 92 92 76 64 68 80 76 76 92 92 92 92 92 92 92 92 88 92 92 92 92 92
0 8 8 8 8 8 8 8 0 0 0 0 0 0 0 0 0 0 0 0 0 0 0 0 0 0 0 0 0 0 8 44 44 44 44 56 44 20 0 0 0 0 0 0 20 56 88 92 88 80 64 44 56 56 68 92 92 92 92 92 92 92 92 92 92 92 92 92 92
0 0 0 0 8 8 8 0 0 0 0 0 0 0 0 0 0 0 0 0 0 0 0 0 0 0 0 0 0 0 12 56 56 48 36 32 36 24 0 0 0 0 0 8 64 88 88 92 88 88 80 64 48 48 56 76 92 92 92 92 92 92 92 92 92 92 92 92 92
0 0 0 0 0 0 0 0 0 0 0 0 0 0 0 0 0 0 0 0 0 0 0 0 0 0 0 0 0 0 0 0 24 36 36 24 32 32 24 0 0 0 20 76 76 88 92 92 88 88 80 68 56 48 48 48 80 92 92 92 92 92 92 92 92 92 92 92 92
0 0 0 0 0 0 0 0 0 0 0 0 0 0 0 0 0 0 0 0 0 0 0 0 0 0 0 0 0 0 0 0 0 0 12 12 12 24 36 20 8 0 0 0 32 68 92 92 88 88 88 88 68 64 56 48 68 80 92 92 92 92 92 92 92 92 92 92 92
0 0 0 0 0 0 0 0 0 0 0 0 0 0 0 0 0 0 0 0 0 0 0 0 0 0 0 0 0 0 0 0 0 0 0 0 0 24 48 44 20 8 0 0 0 44 92 92 88 88 88 80 80 76 64 56 76 88 92 92 92 92 92 92 92 92 92 92 92
0 0 0 0 0 0 0 0 0 0 0 0 0 0 0 0 0 0 0 0 0 0 0 0 0 0 0 0 0 0 0 0 0 0 0 0 8 32 48 48 44 24 0 0 0 44 92 92 88 88 88 76 80 76 64 68 88 92 92 92 92 92 92 92 92 92 92 92 92
0 0 0 0 0 0 0 0 0 0 0 0 0 0 0 0 0 0 0 0 0 0 0 0 0 0 0 0 0 0 0 0 0 0 0 0 0 8 24 44 44 20 0 0 8 48 92 92 92 88 80 88 80 68 68 80 88 92 92 92 92 92 92 92 92 92 92 92 92
0 0 0 0 0 0 0 0 0 0 0 0 0 0 0 0 0 0 0 0 0 0 0 0 0 0 0 0 0 0 0 0 0 0 0 0 0 0 0 0 0 0 8 24 48 76 92 92 92 80 76 88 80 76 76 88 92 92 92 92 92 92 92 92 92 92 92 92 92
0 0 0 0 0 0 0 0 0 0 0 0 0 0 0 0 0 0 0 0 0 0 0 0 0 0 0 0 0 0 0 0 0 0 0 0 0 0 0 8 0 0 20 80 92 92 92 92 92 92 88 88 88 88 88 92 92 92 92 92 92 92 92 92 92 92 92 92 92
0 0 0 0 0 0 0 0 0 0 0 0 0 0 0 0 0 0 0 0 0 0 0 0 0 0 0 0 0 0 0 0 0 0 0 0 0 24 48 56 24 12 32 92 92 92 92 92 92 92 88 88 88 88 88 92 92 92 92 92 92 92 92 92 92 92 92 92 92
0 0 0 0 0 0 0 0 0 0 0 0 0 0 0 0 0 0 0 0 0 0 0 0 0 0 0 0 0 0 0 0 0 0 0 0 0 44 92 92 64 36 44 68 88 92 92 92 92 92 92 92 92 92 92 92 92 92 92 92 92 92 92 92 92 92 92 92 92
0 0 0 0 0 0 0 0 0 0 0 0 0 0 0 0 0 0 0 0 0 0 0 0 0 0 0 0 0 0 0 0 0 0 0 0 12 48 88 92 80 68 48 48 80 92 92 92 92 92 92 92 92 92 92 92 92 92 92 92 92 92 92 92 92 92 92 92 92
0 0 0 0 0 0 0 0 0 0 0 0 0 0 0 0 0 0 0 0 0 0 0 0 0 0 0 0 0 0 0 0 0 0 0 20 56 68 68 92 92 76 56 48 76 92 92 92 92 92 92 92 92 92 92 92 92 92 92 92 92 92 92 92 92 92 92 92 92
0 0 0 0 0 0 0 0 0 0 0 0 0 0 0 0 0 0 0 0 0 0 0 8 12 8 0 0 0 0 0 0 0 0 8 32 48 64 76 92 92 88 80 76 88 92 92 92 92 92 92 92 92 92 92 92 92 92 92 92 92 92 92 92 92 92 92 92 92
0 0 0 0 0 0 0 0 0 0 0 0 0 0 0 0 0 0 0 8 0 0 0 20 20 12 8 0 0 0 0 0 8 36 64 68 76 56 56 92 92 92 92 80 92 92 92 92 92 92 92 92 92 92 92 92 92 92 92 92 92 92 92 92 92 92 92 92 92
0 0 0 0 0 0 0 0 0 0 0 0 0 0 0 0 0 0 0 20 12 8 0 20 20 8 0 0 0 12 24 24 64 64 64 88 88 80 76 92 92 64 36 32 80 92 92 92 92 92 92 92 92 92 92 92 92 92 92 92 92 92 92 92 92 92 92 92 92
0 0 0 0 0 0 0 0 0 0 0 0 0 0 0 0 0 0 0 0 0 0 0 0 8 8 0 0 0 24 56 80 88 80 76 56 80 88 88 92 92 56 24 36 80 92 92 92 92 92 92 92 92 92 92 92 92 92 92 92 92 92 92 92 92 92 92 92 92
0 0 0 0 0 0 0 0 0 0 0 0 0 0 0 0 0 0 0 0 0 0 0 0 0 0 0 0 32 64 88 88 88 88 88 80 88 88 88 88 76 64 56 80 80 88 92 92 92 92 92 92 92 92 92 92 92 92 92 92 92 92 92 92 92 92 92 92 92
0 0 0 0 0 0 0 0 0 0 0 0 0 8 8 8 8 0 0 0 0 0 0 12 12 24 36 44 76 88 88 88 88 88 88 88 88 88 88 88 88 88 88 88 88 92 92 92 92 92 92 92 92 92 92 92 92 92 92 92 92 92 92 92 92 92 92 92 92
0 0 0 0 0 0 8 0 0 8 8 12 12 20 24 20 12 8 0 0 0 0 8 24 48 64 68 56 80 88 88 88 88 88 88 88 88 88 88 88 92 92 88 88 92 92 92 92 92 92 92 92 92 92 92 92 92 92 92 92 92 92 92 92 92 92 92 92 92
0 0 0 0 8 8 12 12 12 12 20 20 32 36 24 20 12 12 8 12 8 8 20 32 48 76 88 88 88 88 92 92 92 92 92 92 92 92 92 92 92 92 92 92 92 92 92 92 92 92 92 92 92 92 92 92 92 92 92 92 92 92 92 92 92 92 92 92 92
0 0 8 12 20 20 20 20 32 36 44 44 36 32 24 32 24 20 24 44 32 32 36 20 24 44 64 88 88 88 92 92 92 92 92 92 92 88 88 92 92 88 88 92 92 92 92 92 92 92 92 92 92 92 92 92 92 92 92 92 92 92 92 92 92 92 92 92 92
12 20 24 36 36 32 24 24 44 48 56 68 44 36 36 24 24 24 24 32 32 48 68 88 56 48 44 32 68 80 80 76 88 92 92 92 92 92 92 92 92 92 92 92 92 92 92 92 92 92 92 92 92 92 92 92 92 92 92 92 92 92 92 92 92 92 92 88 76
36 56 76 88 64 44 32 36 56 64 64 64 56 48 36 44 32 32 44 88 88 80 76 88 80 56 24 12 32 64 88 92 92 92 92 92 92 88 88 92 88 68 64 92 92 92 92 92 92 92 92 92 92 92 92 92 92 92 92 92 92 92 92 92 92 80 76 76 80
64 68 68 64 64 56 48 68 56 68 76 48 44 48 68 76 80 88 80 68 88 88 80 64 64 44 24 24 44 64 88 92 92 92 92 88 88 88 88 92 92 76 68 92 92 92 92 92 92 92 92 92 92 92 92 92 92 92 92 92 92 92 92 92 92 92 92 92 92
80 76 76 68 68 56 44 32 44 36 24 24 36 32 36 88 56 44 48 56 80 88 80 68 80 68 48 48 64 76 80 92 92 92 92 88 88 92 92 92 92 92 92 92 92 92 92 92 92 92 92 92 92 92 92 92 92 92 92 92 92 92 92 92 92 92 92 92 92
76 68 64 44 48 36 24 20 0 0 0 0 0 0 20 88 76 56 44 48 80 76 76 92 80 68 64 64 80 88 92 92 92 92 92 92 92 92 92 92 92 92 92 92 92 92 92 92 92 92 92 92 92 92 92 92 92 92 92 92 92 92 92 92 92 92 92 92 92
68 64 48 24 20 12 12 0 0 0 0 0 0 0 20 88 80 76 68 88 88 76 76 92 80 80 80 76 88 92 92 92 92 92 92 92 88 88 88 88 92 92 92 92 92 92 92 92 92 92 92 92 92 92 92 92 92 92 92 92 92 92 92 92 92 92 92 92 92
56 56 44 32 24 12 8 8 12 12 8 8 0 0 20 80 68 76 80 88 88 80 76 92 80 80 88 92 92 92 92 88 88 92 92 92 92 92 92 88 92 92 92 92 92 92 92 92 92 92 88 88 88 92 92 92 92 92 92 92 92 92 92 92 92 92 92 92 92
44 44 44 44 32 20 12 24 36 36 32 12 24 24 36 68 76 76 68 88 92 92 92 92 80 88 92 92 92 92 92 88 92 92 92 92 92 92 92 92 92 92 92 92 92 92 92 92 92 92 88 88 88 92 92 92 92 92 92 92 92 92 92 92 92 92 92 92 92
24 32 36 48 36 32 36 56 76 68 48 44 68 76 68 88 88 80 76 92 92 92 92 88 88 92 92 92 88 88 88 92 92 92 92 92 92 92 92 92 92 92 92 92 92 92 92 92 88 88 88 88 92 92 92 92 92 92 92 92 92 92 92 92 92 92 92 92 92
24 32 44 64 64 64 68 88 88 80 76 76 76 80 88 88 88 80 80 88 92 92 88 76 88 92 92 92 88 88 80 92 92 92 92 92 92 92 92 92 92 92 92 92 92 92 88 88 88 88 92 92 92 92 92 92 92 92 92 92 92 92 92 92 92 92 92 88 92
32 44 64 80 88 88 88 88 88 88 88 88 88 88 88 80 80 80 76 80 88 92 88 76 88 88 92 88 88 80 80 92 92 92 92 92 92 92 92 92 92 92 92 92 92 88 88 88 88 88 92 92 92 92 92 92 92 92 92 92 92 92 92 92 92 88 88 88 88
44 64 76 88 88 88 88 88 88 88 88 88 88 88 80 76 76 76 80 80 88 88 88 80 88 92 92 88 88 88 80 80 88 88 88 92 92 92 92 92 92 92 92 92 92 92 92 92 92 92 92 92 92 92 92 92 92 92 92 92 92 92 92 88 88 88 88 88 88